timestamp,surface_pressure_avg,surface_temp_avg,battery_voltage,lat,long
2021-11-02 00:09:00+00:00,282.118,10.0,12.65,47.84626,-54.09684
2021-11-02 00:19:00+00:00,273.2648,10.0,12.65,47.84626,-54.09684
2021-11-02 00:29:00+00:00,269.3697,10.0,12.65,47.84626,-54.09684
2021-11-02 00:39:00+00:00,261.7898,10.0,12.65,47.84626,-54.09684
2021-11-02 00:49:00+00:00,252.0314,10.0,12.65,47.84626,-54.09684
2021-11-02 00:59:00+00:00,244.6114,10.0,12.65,47.84626,-54.09684
2021-11-02 01:09:00+00:00,239.3398,10.0,12.65,47.84626,-54.09684
2021-11-02 01:19:00+00:00,232.4347,10.0,12.65,47.84626,-54.09684
2021-11-02 01:29:00+00:00,226.9131,10.0,12.65,47.84626,-54.09684
2021-11-02 01:39:00+00:00,224.5848,10.0,12.65,47.84626,-54.09684
2021-11-02 01:49:00+00:00,220.6231,10.0,12.65,47.84626,-54.09684
2021-11-02 01:59:00+00:00,215.2698,10.0,12.65,47.84626,-54.09684
2021-11-02 02:09:00+00:00,209.4414,10.0,12.65,47.84626,-54.09684
2021-11-02 02:19:00+00:00,205.5815,10.0,12.57,47.84626,-54.09684
2021-11-02 02:29:00+00:00,202.5431,10.0,12.57,47.84626,-54.09684
2021-11-02 02:39:00+00:00,199.1531,10.0,12.57,47.84626,-54.09684
2021-11-02 02:49:00+00:00,199.3881,10.0,12.57,47.84626,-54.09684
2021-11-02 02:59:00+00:00,200.2481,10.0,12.57,47.84626,-54.09684
2021-11-02 03:09:00+00:00,196.0198,10.0,12.57,47.84626,-54.09684
2021-11-02 03:19:00+00:00,194.4832,10.0,12.57,47.84626,-54.09684
2021-11-02 03:29:00+00:00,198.0798,10.0,12.57,47.84626,-54.09684
2021-11-02 03:39:00+00:00,200.5264,10.0,12.57,47.84626,-54.09684
2021-11-02 03:49:00+00:00,199.2365,10.0,12.57,47.84626,-54.09684
2021-11-02 03:59:00+00:00,200.8098,10.0,12.57,47.84626,-54.09684
2021-11-02 04:09:00+00:00,205.9631,10.0,12.57,47.84626,-54.09684
2021-11-02 04:19:00+00:00,207.7781,10.0,12.57,47.84626,-54.09684
2021-11-02 04:29:00+00:00,208.6148,10.0,12.57,47.84626,-54.09684
2021-11-02 04:39:00+00:00,211.4064,10.0,12.57,47.84626,-54.09684
2021-11-02 04:49:00+00:00,215.0898,10.0,12.57,47.84626,-54.09684
2021-11-02 04:59:00+00:00,218.4747,10.0,12.57,47.84626,-54.09684
2021-11-02 05:09:00+00:00,223.0098,10.0,12.57,47.84626,-54.09684
2021-11-02 05:19:00+00:00,228.4348,10.0,12.57,47.84626,-54.09684
2021-11-02 05:29:00+00:00,234.3948,10.0,12.57,47.84626,-54.09684
2021-11-02 05:39:00+00:00,239.228,10.0,12.57,47.84626,-54.09684
2021-11-02 05:49:00+00:00,245.2147,10.0,12.57,47.84626,-54.09684
2021-11-02 05:59:00+00:00,250.0448,10.0,12.57,47.84626,-54.09684
2021-11-02 06:09:00+00:00,259.083,10.0,12.57,47.84626,-54.09684
2021-11-02 06:19:00+00:00,266.9014,10.0,12.57,47.84626,-54.09684
2021-11-02 06:29:00+00:00,271.7848,10.0,12.57,47.84626,-54.09684
2021-11-02 06:39:00+00:00,274.0397,10.0,12.57,47.84626,-54.09684
2021-11-02 06:49:00+00:00,282.7548,10.0,12.57,47.84626,-54.09684
2021-11-02 06:59:00+00:00,292.163,10.0,12.57,47.84626,-54.09684
2021-11-02 07:09:00+00:00,299.0247,10.0,12.57,47.84626,-54.09684
2021-11-02 07:19:00+00:00,304.3113,10.0,12.57,47.84626,-54.09684
2021-11-02 07:29:00+00:00,312.2347,10.0,12.57,47.84626,-54.09684
2021-11-02 07:39:00+00:00,319.2546,10.0,12.57,47.84626,-54.09684
2021-11-02 07:49:00+00:00,322.4579,10.0,12.57,47.84626,-54.09684
2021-11-02 07:59:00+00:00,326.7962,10.0,12.57,47.84626,-54.09684
2021-11-02 08:09:00+00:00,331.9764,10.0,12.57,47.84626,-54.09684
2021-11-02 08:19:00+00:00,336.0630000000001,10.0,12.57,47.84626,-54.09684
2021-11-02 08:29:00+00:00,336.3463,10.0,12.57,47.84626,-54.09684
2021-11-02 08:39:00+00:00,337.543,10.0,12.57,47.84626,-54.09684
2021-11-02 08:49:00+00:00,339.30300000000005,10.0,12.57,47.84626,-54.09684
2021-11-02 08:59:00+00:00,340.3029,10.0,12.57,47.84626,-54.09684
2021-11-02 09:09:00+00:00,340.1629,10.0,12.57,47.84626,-54.09684
2021-11-02 09:19:00+00:00,341.2530000000001,10.0,12.57,47.84626,-54.09684
2021-11-02 09:29:00+00:00,342.2996,10.0,12.57,47.84626,-54.09684
2021-11-02 09:39:00+00:00,341.0046,10.0,12.57,47.84626,-54.09684
2021-11-02 09:49:00+00:00,337.4963,10.0,12.57,47.84626,-54.09684
2021-11-02 09:59:00+00:00,336.9645,10.0,12.57,47.84626,-54.09684
2021-11-02 10:09:00+00:00,337.3297,10.0,12.57,47.84626,-54.09684
2021-11-02 10:19:00+00:00,338.0596,10.0,12.57,47.84626,-54.09684
2021-11-02 10:29:00+00:00,333.3997,10.0,12.57,47.84626,-54.09684
2021-11-02 10:39:00+00:00,331.4046,10.0,12.57,47.84626,-54.09684
2021-11-02 10:49:00+00:00,329.6562,10.0,12.57,47.84626,-54.09684
2021-11-02 10:59:00+00:00,325.3547,10.0,12.57,47.84626,-54.09684
2021-11-02 11:09:00+00:00,322.0063,10.0,12.57,47.84626,-54.09684
2021-11-02 11:19:00+00:00,317.468,10.0,12.57,47.84626,-54.09684
2021-11-02 11:29:00+00:00,310.1597,10.0,12.57,47.84626,-54.09684
2021-11-02 11:39:00+00:00,302.873,10.0,12.57,47.84626,-54.09684
2021-11-02 11:49:00+00:00,300.038,10.0,12.57,47.84626,-54.09684
2021-11-02 11:59:00+00:00,294.6847,10.0,12.57,47.84626,-54.09684
2021-11-02 12:09:00+00:00,286.8014,10.0,12.57,47.84626,-54.09684
2021-11-02 12:19:00+00:00,280.4614,10.0,13.21,47.84626,-54.09684
2021-11-02 12:29:00+00:00,275.6397,10.0,13.21,47.84626,-54.09684
2021-11-02 12:39:00+00:00,267.5948,10.0,13.21,47.84626,-54.09684
2021-11-02 12:49:00+00:00,259.9297,10.0,13.21,47.84626,-54.09684
2021-11-02 12:59:00+00:00,254.4714,10.0,13.21,47.84626,-54.09684
2021-11-02 13:09:00+00:00,248.9814,10.0,13.21,47.84626,-54.09684
2021-11-02 13:19:00+00:00,241.6414,10.0,14.24,47.84626,-54.09684
2021-11-02 13:29:00+00:00,237.7364,10.0,14.24,47.84626,-54.09684
2021-11-02 13:39:00+00:00,232.6031,10.0,14.24,47.84626,-54.09684
2021-11-02 13:49:00+00:00,225.7415,10.01,14.24,47.84626,-54.09684
2021-11-02 13:59:00+00:00,219.7698,10.03,14.24,47.84626,-54.09684
2021-11-02 14:09:00+00:00,217.8264,10.04,14.24,47.84626,-54.09684
2021-11-02 14:19:00+00:00,213.5448,10.05,14.48,47.84626,-54.09684
2021-11-02 14:29:00+00:00,207.9964,10.06,14.48,47.84626,-54.09684
2021-11-02 14:39:00+00:00,206.9065,10.07,14.48,47.84626,-54.09684
2021-11-02 14:49:00+00:00,203.6765,10.07,14.48,47.84626,-54.09684
2021-11-02 14:59:00+00:00,196.8831,10.08,14.48,47.84626,-54.09684
2021-11-02 15:09:00+00:00,194.6648,10.08,14.48,47.84626,-54.09684
2021-11-02 15:19:01+00:00,195.7448,10.09,14.56,47.84626,-54.09684
2021-11-02 15:29:01+00:00,194.3064,10.1,14.56,47.84626,-54.09684
2021-11-02 15:39:01+00:00,190.2481,10.1,14.56,47.84626,-54.09684
2021-11-02 15:49:01+00:00,189.1781,10.1,14.56,47.84626,-54.09684
2021-11-02 15:59:01+00:00,191.9897,10.1,14.56,47.84626,-54.09684
2021-11-02 16:09:01+00:00,196.2248,10.1,14.56,47.84626,-54.09684
2021-11-02 16:19:00+00:00,198.7215,10.1,14.48,47.84626,-54.09684
2021-11-02 16:29:00+00:00,201.7465,10.13,14.48,47.84626,-54.09684
2021-11-02 16:39:00+00:00,207.2881,10.14,14.48,47.84626,-54.09684
2021-11-02 16:49:00+00:00,211.0814,10.17,14.48,47.84626,-54.09684
2021-11-02 16:59:00+00:00,212.5548,10.2,14.48,47.84626,-54.09684
2021-11-02 17:09:00+00:00,214.8648,10.21,14.48,47.84626,-54.09684
2021-11-02 17:19:00+00:00,218.3514,10.23,14.32,47.84626,-54.09684
2021-11-02 17:29:00+00:00,222.0664,10.23,14.32,47.84626,-54.09684
2021-11-02 17:39:00+00:00,227.2831,10.22,14.32,47.84626,-54.09684
2021-11-02 17:49:00+00:00,231.8548,10.24,14.32,47.84626,-54.09684
2021-11-02 17:59:00+00:00,236.1381,10.26,14.32,47.84626,-54.09684
2021-11-02 18:09:00+00:00,242.1431,10.26,14.32,47.84626,-54.09684
2021-11-02 18:19:00+00:00,248.1247,10.27,14.16,47.84626,-54.09684
2021-11-02 18:29:00+00:00,253.7997,10.27,14.16,47.84626,-54.09684
2021-11-02 18:39:00+00:00,259.9731,10.27,14.16,47.84626,-54.09684
2021-11-02 18:49:00+00:00,264.5448,10.29,14.16,47.84626,-54.09684
2021-11-02 18:59:00+00:00,266.6831,10.3,14.16,47.84626,-54.09684
2021-11-02 19:09:00+00:00,272.0897,10.3,14.16,47.84626,-54.09684
2021-11-02 19:19:00+00:00,279.8664,10.3,13.92,47.84626,-54.09684
2021-11-02 19:29:00+00:00,284.423,10.29,13.92,47.84626,-54.09684
2021-11-02 19:39:00+00:00,290.3414,10.28,13.92,47.84626,-54.09684
2021-11-02 19:49:00+00:00,299.7914,10.29,13.92,47.84626,-54.09684
2021-11-02 19:59:00+00:00,307.2446,10.29,13.92,47.84626,-54.09684
2021-11-02 20:09:00+00:00,312.3781,10.28,13.92,47.84626,-54.09684
2021-11-02 20:19:00+00:00,321.1197,10.28,13.37,47.84626,-54.09684
2021-11-02 20:29:00+00:00,332.1296,10.22,13.37,47.84626,-54.09684
2021-11-02 20:39:00+00:00,338.9429,10.2,13.37,47.84626,-54.09684
2021-11-02 20:49:00+00:00,341.4479,10.21,13.37,47.84626,-54.09684
2021-11-02 20:59:00+00:00,346.4346,10.2,13.37,47.84626,-54.09684
2021-11-02 21:09:00+00:00,352.9763,10.2,13.37,47.84626,-54.09684
2021-11-02 21:19:00+00:00,355.423,10.2,12.97,47.84626,-54.09684
2021-11-02 21:29:00+00:00,356.5463,10.2,12.97,47.84626,-54.09684
2021-11-02 21:39:00+00:00,360.8796,10.2,12.97,47.84626,-54.09684
2021-11-02 21:49:00+00:00,364.138,10.2,12.97,47.84626,-54.09684
2021-11-02 21:59:00+00:00,364.4813,10.2,12.97,47.84626,-54.09684
2021-11-02 22:09:00+00:00,363.1512,10.2,12.97,47.84626,-54.09684
2021-11-02 22:19:00+00:00,364.1296,10.15,12.73,47.84626,-54.09684
2021-11-02 22:29:00+00:00,364.2445,10.19,12.73,47.84626,-54.09684
2021-11-02 22:39:00+00:00,362.8763,10.2,12.73,47.84626,-54.09684
2021-11-02 22:49:00+00:00,361.1562,10.2,12.73,47.84626,-54.09684
2021-11-02 22:59:00+00:00,358.713,10.2,12.73,47.84626,-54.09684
2021-11-02 23:09:00+00:00,354.603,10.2,12.73,47.84626,-54.09684
2021-11-02 23:19:00+00:00,348.9963,10.2,12.73,47.84626,-54.09684
2021-11-02 23:29:00+00:00,347.1962,10.2,12.73,47.84626,-54.09684
2021-11-02 23:39:00+00:00,344.8047,10.2,12.73,47.84626,-54.09684
2021-11-02 23:49:00+00:00,336.853,10.2,12.73,47.84626,-54.09684
2021-11-02 23:59:00+00:00,328.7663,10.2,12.73,47.84626,-54.09684
